Location: Burera
(21.3780°N, 81.9534°E)
Time: 12:01:22
(UTC+00:00)

deb Kosmos-1763 - Pass Details

Date: 13 August 2020
Orbit: 463 x 478 km, 74.0° (Epoch: 21 September)

Event Time Altitude Azimuth Distance (km) Brightness Sun altitude
Rises 13:59:25 0° 189° (S) 2,486 7.5 -13.1°
Reaches altitude 10° 14:01:31 10° 186° (S) 1,615 6.6 -13.6°
Maximum altitude 14:05:03 68° 104° (ESE) 506 3.9 -14.3°
Drops below altitude 10° 14:08:38 10° 20° (NNE) 1,631 6.8 -15.1°
Sets 14:10:45 0° 18° (NNE) 2,513 7.8 -15.6°
